Regional Weather Roundup
Issued by NWS

Home | Current Version | Previous Version | Graphics & Text | Print | Product List | Glossary On
Versions: 1 2 3 4 5 6 7 8 9 10 11 12 13 14 15 16 17 18 19 20 21 22 23 24 25 26 27 28 29 30 31 32 33 34 35 36 37 38 39 40 41 42 43 44 45 46 47 48 49 50
156
ASUS43 KMKX 281321
RWRWI

WISCONSIN REGIONAL WEATHER ROUNDUP
NATIONAL WEATHER SERVICE MILWAUKEE/SULLIVAN WI
800 AM CDT WED JUN 28 2017

NOTE: "FAIR" INDICATES FEW OR NO CLOUDS BELOW 12,000 FEET WITH NO
SIGNIFICANT WEATHER AND/OR OBSTRUCTIONS TO VISIBILITY.

WIZ001-002-006>008-014>016-023>028-281400-
NORTHWEST WISCONSIN

CITY           SKY/WX    TMP DP  RH WIND       PRES   REMARKS
SUPERIOR ARPT  NOT AVBL
ASHLAND        CLOUDY    60  51  72 S3        29.73F
HAYWARD        CLOUDY    60  49  66 VRB3      29.71F
SIREN          RAIN      61  51  70 CALM      29.64F
CUMBERLAND     CLOUDY    57  48  72 SE12      29.68F
RICE LAKE      CLOUDY    61  50  65 SE15      29.70S
CHETEK         CLOUDY    60  51  71 SE9       29.70F
LADYSMITH      CLOUDY    62  51  66 SE8       29.76F
EAU CLAIRE     CLOUDY    62  54  74 S12       29.70F
MENOMONIE      LGT RAIN  62  59  90 SE12      29.68F
NEW RICHMOND   CLOUDY    61  59  92 SE9       29.66R
OSCEOLA        CLOUDY    61  61 100 SE12G17   29.67R
$$

WIZ003>005-009-010-017-018-281400-
NORTH CENTRAL WISCONSIN

CITY           SKY/WX    TMP DP  RH WIND       PRES   REMARKS
MANITOWISH WTR CLOUDY    60  51  72 S8        29.79S
ARBOR VITAE    LGT RAIN  61  51  71 S8        29.79F
WOODRUFF       LGT RAIN  61  51  71 S8        29.79F
RHINELANDER    CLOUDY    60  50  69 S8G17     29.82F
EAGLE RIVER    CLOUDY    57  47  69 SE6       29.82F
LAND O LAKES   CLOUDY    61  49  64 S6        29.84S
PHILLIPS       CLOUDY    59  50  73 S7        29.78R
TOMAHAWK       NOT AVBL
MEDFORD        RAIN      55  52  90 SE10      29.79S
MERRILL        CLOUDY    58  50  75 S5        29.83R
$$

WIZ029-030-035-036-043>047-281400-
CENTRAL WISCONSIN

CITY           SKY/WX    TMP DP  RH WIND       PRES   REMARKS
WAUSAU           N/A    N/A N/A N/A MISG      29.82S
MOSINEE        RAIN      57  54  88 S12       29.85R
MARSHFIELD     LGT RAIN  57  52  83 SE6       29.82R
STEVENS POINT  CLOUDY    61  49  65 S12       29.84S
WAUPACA        CLOUDY    63  53  71 SE7       29.86F
WAUTOMA        CLOUDY    61  52  72 S7        29.86
WISC RAPIDS    CLOUDY    59  55  87 S7        29.85S
CAMP DOUGLAS   CLOUDY    64  54  68 S5        29.83R
$$

WIZ011>013-019>022-031-037>040-048>050-281400-
NORTHEAST WISCONSIN

CITY           SKY/WX    TMP DP  RH WIND       PRES   REMARKS
ANTIGO         CLOUDY    55  50  81 S10       29.86F
SHAWANO        CLOUDY    63  52  67 S6        29.87F
OCONTO         CLOUDY    64  51  64 S7        29.90R
STURGEON BAY     N/A     63  50  62 S17       29.92R
GREEN BAY      CLOUDY    63  53  70 S10       29.90R
MANITOWOC      PTSUNNY   60  50  69 S9        29.94R
APPLETON       PTSUNNY   66  46  48 S13       29.97R
CLINTONVILLE   CLOUDY    61  50  67 S7        29.86F
OSHKOSH        CLOUDY    64  51  62 S15       29.88S
$$

WIZ032>034-041-042-053>061-281400-
SOUTHWEST WISCONSIN

CITY           SKY/WX    TMP DP  RH WIND       PRES   REMARKS
LA CROSSE      LGT RAIN  67  63  87 S20       29.73F
SPARTA         DRIZZLE   63  56  79 S10G18    29.81F
VIROQUA        CLOUDY    61  61 100 S12G18    29.83F
BOSCOBEL       RAIN      65  62  90 CALM      29.84F FOG
PRAIRIE DU CHI CLOUDY    62  60  95 E8        29.83F
PLATTEVILLE    CLOUDY    62  62 100 S10       29.91R
$$

WIZ056-057-062-063-064-067-068-281400-
SOUTH CENTRAL WISCONSIN

CITY           SKY/WX    TMP DP  RH WIND       PRES   REMARKS
REEDSBURG      RAIN      61  58  90 S9        29.86R
BARABOO/DELLS  LGT RAIN  59  54  82 S12       29.87R
LONE ROCK      HVY RAIN  62  58  86 SW6       29.89R FOG
MINERAL POINT  RAIN      61  61 100 S13G18    29.92R
MADISON        CLOUDY    64  53  67 S10       29.89S
MIDDLETON      CLOUDY    63  54  72 SW12G17   29.90R
WATERTOWN      NOT AVBL
MONROE         LGT RAIN  63  54  72 S18       29.91R
JANESVILLE     CLOUDY    66  52  59 S13       29.92R
$$

WIZ051-052-058>065-066-070>072-281400-
SOUTHEAST WISCONSIN

CITY           SKY/WX    TMP DP  RH WIND       PRES   REMARKS
MILWAUKEE      CLOUDY    66  51  58 S12       29.96R
WAUKESHA       MOSUNNY   61  48  63 S10       29.96R
MILWAUKEE/TIMM SUNNY     63  46  55 S12G20    29.96R
RACINE         CLOUDY    64  49  57 S9        29.99R
KENOSHA        CLOUDY    63  50  62 S10       29.98R
FOND DU LAC    CLOUDY    65  49  56 S14       29.90R
SHEBOYGAN      MOSUNNY   63  52  67 S10       29.93S
WEST BEND      CLOUDY    63  52  67 S10       29.94R
JUNEAU         CLOUDY    61  50  68 SE13G20   29.92S
$$

LSZ147-162-281400-
LAKE SUPERIOR

STATION/POSITION TIME  TEMP    WIND        PRES    WAVE
                       AIR SEA DIR/SP/G            HT/PER
                 (UTC) (F)     (DEG/KT/KT) (MB)    (FT/S)
W MID LAKE BUOY  1250   46 39  150/  6/ 10 1008.1R   1
DEVILS ISLAND    1300   60     110/  6/  6 1006.8F
SAXON HARBOR     1230   65     190/  7/ 12 1006.1F
$$

LMZ867-665-643>646-281400-
LAKE MICHIGAN

STATION/POSITION TIME  TEMP    WIND        PRES    WAVE
                       AIR SEA DIR/SP/G            HT/PER
                 (UTC) (F)     (DEG/KT/KT) (MB)    (FT/S)
CHAMBERS ISLAND  1240   67     150/  5/ 11 1011.9F
S GREEN BAY BUOY 1300   66     190/ 17/ 21 1012.2
N MID LAKE BUOY  1250   57 56  170/ 12/ 14 1013.8F   3/ 5
NORTHPORT PIER   1240   65     150/  6/  9 1012.9F
KEWAUNEE LAKESHO 1254   54     180/ 11/ 14 1013.3R
SHEBOYGAN LAKESH 1300   56     180/ 17/ 18 1013.4R
PORT WASHINGTON  1240   58     190/  3/  7 1014.9R
ATWATER BUOY     1209   60 55  170/ 12/ 16 1014.1R
MILWAUKEE LAKESH 1300   64     180/ 14/ 16   N/A
S MID LAKE BUOY  1250   63 61  160/ 17/ 19 1015.5R   2/ 4
KENOSHA   LAKESH 1300   63     180/ 11/ 13 1014.9
$$

TC  - TEMPERATURE IN CELSIUS
VSB - VISIBILITY IN STATUTE MILES
WCI - WIND CHILL INDEX
HX  - HEAT INDEX





USA.gov is the U.S. government's official web portal to all federal, state and local government web resources and services.